Regional Weather Roundup
Issued by NWS

Home | Current Version | Previous Version | Text Only | Print | Product List | Glossary Off
Versions: 1 2 3 4 5 6 7 8 9 10 11 12 13 14 15 16 17 18 19 20 21 22 23 24 25 26 27 28 29 30 31 32 33 34 35 36 37 38 39 40 41 42 43 44 45 46 47 48 49 50

000
ASUS45 KBOU 282107
RWRCO

WEATHER ROUNDUP FOR COLORADO
NATIONAL WEATHER SERVICE DENVER/BOULDER CO
300 PM MDT SAT MAR 28 2015

NOTE: "FAIR" INDICATES FEW OR NO CLOUDS BELOW 12000 FEET WITH NO
SIGNIFICANT WEATHER AND/OR OBSTRUCTIONS TO VISIBILITY.

COZ001>005-013-030-031-282200-
...NORTHWEST COLORADO...

CITY           SKY/WX    TMP DP  RH WIND       PRES   REMARKS
CRAIG          MOSUNNY   73  25  16 W24G33    30.07F
HAYDEN         PTSUNNY   64  21  19 W22G30    30.09F
MEEKER         MOSUNNY   73  21  14 W23G31    30.09F
MOUNT WERNER   NOT AVBL
STEAMBOAT SPGS MOSUNNY   66  26  22 SW20G28   30.10F
WALDEN         MOSUNNY   61  21  21 W25G35    30.15F
$$

COZ006>008-011-282200-
...WEST CENTRAL VALLEYS...

CITY           SKY/WX    TMP DP  RH WIND       PRES   REMARKS
GRAND JUNCTION SUNNY     75  26  16 NW15      30.07F
MONTROSE       SUNNY     73  20  13 NW5       30.14F
EAGLE          MOSUNNY   70  18  13 SW18G30   30.14F
RIFLE          MOSUNNY   75  21  13 SW17G31   30.07F
DELTA          SUNNY     78  20  11 NW10      30.09F
NUCLA          SUNNY     72  16  12 CALM      30.18F
$$

COZ017>023-064>068-282200-
...SOUTHWEST COLORADO...

CITY           SKY/WX    TMP DP  RH WIND       PRES   REMARKS
DURANGO        SUNNY     71  21  15 W16G33    30.18F
CORTEZ         SUNNY     73  22  14 W15G24    30.19F
PAGOSA SPRINGS MOSUNNY   67  15  13 W9G26     30.22F
TELLURIDE      SUNNY     60  13  16 W6G16     30.33S
WOLF CREEK PAS MOSUNNY   43  19  39 SW8G25    30.47F
$$

COZ009-010-012-014-032>034-037-058>063-282200-
...CENTRAL COLORADO...

CITY           SKY/WX    TMP DP  RH WIND       PRES   REMARKS
ASPEN          MOSUNNY   63  20  19 N8        30.18F
BUENA VISTA    SUNNY     66   9  10 SW18G29   30.17F
COPPER MTN     SUNNY     45   9  23 W21G37    30.38F
BERTHOUD PASS  FAIR      36  30  80 NW28G39   30.38S
COTTONWOOD PAS SUNNY     57  -4   8 W16G31    30.29S
GUNNISON       SUNNY     64  18  16 W18G24    30.23F
KREMMLING      SUNNY     68  12  11 W23G31    30.16F
LEADVILLE      SUNNY     49  15  25 NW6G17    30.28F
SALIDA         SUNNY     71  14  11 W21       30.23F
SUNLIGHT       MOSUNNY   50  21  32 SW5       30.39F
WILKERSON PASS SUNNY     50   5  16 W7G22     30.36F
$$

COZ069>075-282200-
...SAN LUIS VALLEY/SANGRE DE CRISTO MOUNTAINS...

CITY           SKY/WX    TMP DP  RH WIND       PRES   REMARKS
ALAMOSA        SUNNY     68  14  12 VRB6      30.18F
LA VETA PASS   SUNNY     54  19  26 SW9G20    30.31F
SAGUACHE       SUNNY     68  14  12 NW15G29   30.19F
$$

COZ035-036-038>040-282200-
...NORTHERN COLORADO FRONT RANGE...

CITY           SKY/WX    TMP DP  RH WIND       PRES   REMARKS
DENVER INTL AP MOSUNNY   78  19  11 W21G30    29.96F
DMNS CITY PARK   N/A     76  20  12 NW12G24   29.94F
AURORA         MOSUNNY   76  21  13 N7G18     29.99F
FRONT RANGE AP MOSUNNY   77  21  12 W15         N/A
ERIE MUNI ARPT SUNNY     78  18  10 W20G25    29.95F
BOULDER MUN AP SUNNY     77  23  13 NW15G25   29.96F
CENTENNIAL     MOSUNNY   73  19  13 W8        29.99F
BROOMFIELD     MOSUNNY   75  21  13 MISG      30.00F
FORT COLLINS   SUNNY     79  27  14 S6        29.93F
LONGMONT       SUNNY     81  24  12 CALM      29.96F
$$

COZ041-046-047-076>085-087-088-282200-
...PIKES PEAK/PALMER DIVIDE AND SOUTHERN FOOTHILLS...

CITY           SKY/WX    TMP DP  RH WIND       PRES   REMARKS
COLO. SPRINGS  MOSUNNY   73  19  13 VRB5      30.04F
A. F. ACADEMY  SUNNY     71  17  12 VRB7      30.03
ELLICOTT       SUNNY    N/A N/A N/A S18G25    30.03F
FALCON         SUNNY     71  18  13 S12       30.09F
FORT CARSON    SUNNY     76  23  13 NW9G18    30.00F
LIMON          SUNNY     74  19  12 SW13G20   29.99F
MONUMENT HILL  SUNNY     70  19  14 W8        30.07F
TRINIDAD       SUNNY     74  18  12 S6        30.05F
$$

COZ042>045-048>051-090-091-282200-
...NORTHEAST COLORADO...

CITY           SKY/WX    TMP DP  RH WIND       PRES   REMARKS
GREELEY ARPT   SUNNY     79  23  12 N8G18     29.91F
AKRON          SUNNY     78  24  13 SW18      29.94F
BURLINGTON     SUNNY     79  21  11 W15G22    29.96F
WRAY           SUNNY     83  22  10 W15G23    29.89F
STERLING       SUNNY     81  28  15 W18G25    29.88F
HOLYOKE        NOT AVBL
FORT MORGAN    SUNNY     79 -25   1 W15       29.93F
$$

COZ086-089-092>099-282200-
...SOUTHEAST COLORADO...

CITY           SKY/WX    TMP DP  RH WIND       PRES   REMARKS
PUEBLO         SUNNY     78  21  12 SW12G20   29.97F
LA JUNTA       SUNNY     82  22  11 W10G18    29.97F
LAMAR          SUNNY     81  23  11 NW5G16    29.94F
SPRINGFIELD      N/A     79  21  11 W10       29.99F
$$


USA.gov is the U.S. government's official web portal to all federal, state and local government web resources and services.